Location: Invercargill
(46.4000°S, 168.3500°E)
Time: 08:20:50
(UTC+12:00)

Tiros 1 - All Passes

Search period start: 23 July 2019 00:00
Search period end: 02 August 2019 00:00
Orbit: 630 x 664 km, 48.4° (Epoch: 22 July)

Date Brightness Start Highest point End Pass type
(mag) Time Alt. Az. Time Alt. Az. Time Alt. Az.
23 Jul - 00:10:15 10° NNW 00:14:22 31° NE 00:18:29 10° E night (unlit)
23 Jul - 01:51:33 10° WNW 01:56:15 88° NNE 02:00:57 10° ESE night (unlit)
23 Jul - 03:33:58 10° W 03:38:38 68° S 03:43:20 10° E visible
23 Jul - 05:16:16 10° WSW 05:20:57 72° NNW 05:25:38 10° ENE visible
23 Jul - 06:59:02 10° W 07:02:39 22° NW 07:06:16 10° N visible
23 Jul - 22:56:07 10° N 22:58:45 15° NE 23:01:23 10° E night (unlit)
24 Jul - 00:35:39 10° NW 00:40:14 55° NNE 00:44:49 10° ESE night (unlit)
24 Jul - 02:17:43 10° W 02:22:24 72° S 02:27:06 10° ESE night (unlit)
24 Jul - 04:00:09 10° WSW 04:04:51 79° SSE 04:09:34 10° E visible
24 Jul - 05:42:28 10° WSW 05:46:55 43° NNW 05:51:22 10° NE visible
24 Jul - 07:27:23 10° WNW 07:28:13 10° NW 07:29:04 10° NW visible
24 Jul - 23:20:22 10° NNW 23:24:25 29° NE 23:28:27 10° E night (unlit)
25 Jul - 01:01:34 10° WNW 01:06:15 86° NNE 01:10:57 10° ESE night (unlit)
25 Jul - 02:43:58 10° W 02:48:38 68° S 02:53:20 10° E night (unlit)
25 Jul - 04:26:17 10° WSW 04:30:58 76° NNW 04:35:39 10° ENE visible
25 Jul - 06:08:58 10° W 06:12:42 24° NW 06:16:25 10° NNE visible
25 Jul - 22:06:26 10° NNE 22:08:48 14° NE 22:11:12 10° ENE night (unlit)
25 Jul - 23:45:42 10° NW 23:50:15 52° NNE 23:54:49 10° ESE night (unlit)
26 Jul - 01:27:43 10° W 01:32:24 74° S 01:37:07 10° ESE night (unlit)
26 Jul - 03:10:09 10° WSW 03:14:51 77° S 03:19:33 10° E night (unlit)
26 Jul - 04:52:28 10° WSW 04:56:57 46° NNW 05:01:25 10° NE visible
26 Jul - 06:36:47 10° WNW 06:38:18 11° NW 06:39:48 10° NNW visible
26 Jul - 22:30:30 10° NNW 22:34:27 27° NE 22:38:25 10° E night (unlit)
27 Jul - 00:11:34 10° WNW 00:16:16 83° NNE 00:20:58 10° ESE night (unlit)
27 Jul - 01:53:57 10° W 01:58:38 68° S 02:03:19 10° E night (unlit)
27 Jul - 03:36:17 10° WSW 03:40:59 79° NNW 03:45:40 10° ENE night (unlit)
27 Jul - 05:18:55 10° W 05:22:45 25° NW 05:26:34 10° NNE visible
27 Jul - 21:16:48 10° NNE 21:18:52 13° NE 21:20:57 10° ENE night (unlit)
27 Jul - 22:55:45 10° NW 23:00:17 49° NNE 23:04:49 10° ESE night (unlit)
28 Jul - 00:37:43 10° W 00:42:25 75° S 00:47:07 10° ESE night (unlit)
28 Jul - 02:20:09 10° WSW 02:24:51 76° S 02:29:33 10° E night (unlit)
28 Jul - 04:02:28 10° WSW 04:06:59 48° NNW 04:11:29 10° NE night (unlit)
28 Jul - 05:46:26 10° WNW 05:48:22 12° NW 05:50:18 10° NNW visible
28 Jul - 21:40:37 10° NNW 21:44:30 26° NE 21:48:22 10° E night (unlit)
28 Jul - 23:21:35 10° WNW 23:26:17 80° NNE 23:30:58 10° ESE night (unlit)
29 Jul - 01:03:57 10° W 01:08:38 68° S 01:13:19 10° E night (unlit)
29 Jul - 02:46:18 10° WSW 02:51:00 82° NNW 02:55:41 10° ENE night (unlit)
29 Jul - 04:28:53 10° W 04:32:48 27° NW 04:36:43 10° NNE night (unlit)
29 Jul - 20:27:15 10° NNE 20:28:56 12° NE 20:30:39 10° ENE night (unlit)
29 Jul - 22:05:48 10° NW 22:10:18 47° NNE 22:14:49 10° ESE night (unlit)
29 Jul - 23:47:42 10° W 23:52:25 77° SSW 23:57:07 10° ESE night (unlit)
30 Jul - 01:30:09 10° WSW 01:34:51 74° S 01:39:33 10° E night (unlit)
30 Jul - 03:12:28 10° WSW 03:17:01 51° NNW 03:21:32 10° NE night (unlit)
30 Jul - 04:56:10 10° WNW 04:58:26 13° NW 05:00:42 10° NNW night (unlit)
30 Jul - 20:50:46 10° NNW 20:54:33 24° NE 20:58:19 10° E visible
30 Jul - 22:31:35 10° WNW 22:36:17 77° NNE 22:40:59 10° ESE night (unlit)
31 Jul - 00:13:56 10° W 00:18:38 68° S 00:23:19 10° E night (unlit)
31 Jul - 01:56:18 10° WSW 02:01:00 85° NNW 02:05:42 10° ENE night (unlit)
31 Jul - 03:38:50 10° W 03:42:51 29° NW 03:46:50 10° NNE night (unlit)
31 Jul - 19:37:50 10° NNE 19:39:00 11° NE 19:40:11 10° ENE visible
31 Jul - 21:15:51 10° NW 21:20:20 44° NNE 21:24:48 10° ESE visible
31 Jul - 22:57:41 10° W 23:02:25 79° SSW 23:07:07 10° ESE night (unlit)
01 Aug - 00:40:09 10° WSW 00:44:51 73° S 00:49:32 10° E night (unlit)
01 Aug - 02:22:27 10° WSW 02:27:02 54° NNW 02:31:35 10° NE night (unlit)
01 Aug - 04:05:57 10° WNW 04:08:30 15° NW 04:11:02 10° NNW night (unlit)
01 Aug - 20:00:55 10° N 20:04:35 23° NE 20:08:16 10° E visible
01 Aug - 21:41:36 10° WNW 21:46:18 73° NNE 21:51:00 10° ESE visible
01 Aug - 23:23:55 10° W 23:28:37 68° S 23:33:19 10° E night (unlit)
